KF0GNS-15 Weather Reports


time (UTC)temp
C
wind
direction
speed
KPH
gust
KPH
rain 1hr
cm
rain 24hr
cm
rain mn
cm
humidity
%
barometer
mb
20260508185707 17 360 0.0 0.0 0.00 0.00 0.00 72 1010.2
20260508184117 17 360 0.0 0.0 0.00 0.00 0.00 69 1010.2
20260508180939 17 182 1.6 6.4 0.00 0.00 0.00 68 1010.5
20260508175350 17 360 0.0 6.4 0.00 0.00 0.00 70 1010.4
20260508173804 17 174 3.2 8.0 0.00 0.00 0.00 71 1010.6
20260508172212 17 360 0.0 4.8 0.00 0.00 0.00 73 1010.4
20260508170624 16 360 0.0 3.2 0.00 0.00 0.00 75 1010.3
20260508165034 16 169 1.6 12.9 0.00 0.00 0.00 73 1010.1
20260508163447 16 231 12.9 12.9 0.00 0.00 0.00 70 1011.7
20260508162011 16 296 3.2 14.5 0.00 0.00 0.00 68 1011.4
20260508161856 16 296 3.2 14.5 0.00 0.00 0.00 68 1011.4
20260508160437 16 329 3.2 9.7 0.00 0.00 0.00 68 1011.1
20260508160310 16 329 3.2 9.7 0.00 0.00 0.00 68 1011.1
20260508154720 16 194 1.6 14.5 0.00 0.00 0.00 69 1010.8
20260508153129 15 273 11.3 11.3 0.00 0.00 0.00 70 1010.7
20260508151540 15 232 3.2 16.1 0.00 0.00 0.00 70 1010.8
20260508145951 15 201 4.8 17.7 0.00 0.00 0.00 70 1010.8
20260508144402 15 153 6.4 17.7 0.00 0.00 0.00 70 1011.0
20260508141313 15 184 8.0 12.9 0.00 0.00 0.00 68 1011.4
20260508141225 15 184 8.0 12.9 0.00 0.00 0.00 68 1011.4
20260508135635 15 230 1.6 9.7 0.00 0.00 0.00 70 1011.4
20260508134046 14 360 0.0 9.7 0.00 0.00 0.00 70 1011.0
20260508132457 14 205 3.2 11.3 0.00 0.00 0.00 71 1011.0
20260508125320 13 360 0.0 6.4 0.00 0.00 0.00 76 1010.9
20260508123730 13 173 1.6 1.6 0.00 0.00 0.00 75 1011.1
20260508122141 13 173 1.6 4.8 0.00 0.00 0.00 74 1010.8
20260508120553 13 360 0.0 0.0 0.00 0.00 0.00 73 1011.0
20260508115004 13 360 0.0 9.7 0.00 0.00 0.00 72 1011.2
20260508113415 13 322 3.2 3.2 0.00 0.00 0.00 70 1010.6
20260508111827 14 331 3.2 6.4 0.00 0.00 0.00 67 1010.4
20260508110236 14 204 6.4 11.3 0.00 0.00 0.00 67 1010.2
20260508104647 13 218 12.9 14.5 0.00 0.00 0.00 67 1010.1
20260508103058 13 245 4.8 11.3 0.00 0.00 0.00 68 1010.1
20260508101510 13 246 3.2 14.5 0.00 0.00 0.00 68 1010.1
20260508095920 13 248 1.6 12.9 0.00 0.00 0.00 68 1010.2
20260508092742 13 213 4.8 14.5 0.00 0.00 0.00 68 1010.1
20260508091154 13 194 3.2 14.5 0.00 0.00 0.00 70 1010.1
20260508085605 13 287 4.8 11.3 0.00 0.00 0.00 71 1010.2
20260508084015 13 360 0.0 8.0 0.00 0.00 0.00 70 1010.1
20260508082426 13 226 4.8 16.1 0.00 0.00 0.00 70 1010.3
20260508080837 13 238 4.8 16.1 0.00 0.00 0.00 70 1010.4
20260508075248 13 251 1.6 11.3 0.00 0.00 0.00 70 1010.8
20260508073659 13 185 4.8 8.0 0.00 0.00 0.00 70 1011.0
20260508072111 13 240 1.6 9.7 0.00 0.00 0.00 69 1011.2
20260508070521 13 234 1.6 3.2 0.00 0.00 0.00 68 1011.3
20260508064932 13 241 3.2 8.0 0.00 0.00 0.00 67 1011.5
20260508063343 13 149 1.6 4.8 0.00 0.00 0.00 66 1011.7
20260508061754 14 194 3.2 6.4 0.00 0.00 0.00 65 1012.0
20260508060205 14 147 1.6 4.8 0.00 0.00 0.00 65 1012.1
20260508054616 14 360 0.0 6.4 0.00 0.00 0.00 64 1012.1
20260508053027 15 185 4.8 6.4 0.00 0.00 0.00 63 1012.0
20260508051440 15 162 3.2 9.7 0.00 0.00 0.00 62 1012.0
20260508045849 15 169 6.4 6.4 0.00 0.00 0.00 61 1012.0
20260508044301 15 238 3.2 4.8 0.00 0.00 0.00 60 1012.2
20260508042711 16 360 0.0 8.0 0.00 0.00 0.00 60 1012.2
20260508041124 16 229 1.6 6.4 0.00 0.00 0.00 59 1012.3
20260508035533 16 161 1.6 9.7 0.00 0.00 0.00 58 1012.3
20260508033945 16 214 1.6 8.0 0.00 0.00 0.00 56 1012.2
20260508032355 16 255 1.6 8.0 0.00 0.00 0.00 56 1012.2
20260508030806 16 185 3.2 8.0 0.00 0.00 0.00 56 1012.1
20260508025220 17 137 3.2 9.7 0.00 0.00 0.00 56 1012.0
20260508023630 17 178 3.2 11.3 0.00 0.00 0.00 55 1011.9
20260508022041 17 190 1.6 8.0 0.00 0.00 0.00 55 1011.6
20260508020450 17 196 3.2 14.5 0.00 0.00 0.00 54 1011.5
20260508014901 17 203 3.2 6.4 0.00 0.00 0.00 53 1011.4
20260508013312 18 184 1.6 4.8 0.00 0.00 0.00 52 1011.3
20260508011723 18 182 1.6 6.4 0.00 0.00 0.00 51 1011.3
20260508010134 19 179 1.6 3.2 0.00 0.00 0.00 49 1011.3
20260508004641 20 178 3.2 3.2 0.00 0.00 0.00 47 1011.2
20260508004545 20 178 3.2 3.2 0.00 0.00 0.00 47 1011.2
20260508002956 20 248 4.8 6.4 0.00 0.00 0.00 46 1011.2
20260508001758 20 219 4.8 4.8 0.00 0.00 0.00 46 1011.3
20260508001410 20 219 4.8 4.8 0.00 0.00 0.00 46 1011.3
20260507235818 20 296 1.6 17.7 0.00 0.00 0.00 45 1011.4
20260507234230 20 360 0.0 4.8 0.00 0.00 0.00 43 1011.5
20260507232640 21 220 1.6 12.9 0.00 0.00 0.00 43 1011.7
20260507231052 21 225 1.6 11.3 0.00 0.00 0.00 40 1011.8
20260507225504 21 225 6.4 14.5 0.00 0.00 0.00 41 1012.0
20260507222325 21 152 4.8 11.3 0.00 0.00 0.00 41 1012.2
20260507220737 21 265 4.8 9.7 0.00 0.00 0.00 45 1012.1
20260507215148 21 237 1.6 9.7 0.00 0.00 0.00 44 1012.3
20260507212010 21 257 6.4 12.9 0.00 0.00 0.00 46 1012.6
20260507210632 20 179 6.4 22.5 0.00 0.00 0.00 45 1013.3
20260507204830 20 179 6.4 22.5 0.00 0.00 0.00 45 1013.3
20260507203242 20 294 4.8 24.1 0.00 0.00 0.00 46 1013.5
20260507201652 20 348 8.0 12.9 0.00 0.00 0.00 45 1013.8
20260507200103 20 144 14.5 20.9 0.00 0.00 0.00 47 1014.1
20260507191336 19 162 16.1 22.5 0.00 0.00 0.00 46 1014.9